User: anonymous   Login
Location: Fremont
(37.5480°N, 121.9880°W)
Time: 17:28:30
(UTC-07:00)
Language:

Cosmos 1766 - Orbit

View from above orbital plane
View from above orbital plane
View from above satellite
View from above satellite

Ground track
Ground track

The orbit data is extracted from the following two-line orbital elements,

1 16881U 86055A   15214.45883649  .00001492  00000-0  93875-4 0  9990
2 16881 082.5054 332.8136 0014810 280.7449 079.2112 15.08408776578147
Epoch (UTC): 02 August 2015 11:00:43
Eccentricity: 0.0014810
inclination: 82.5054°
perigee height: 531 km
apogee height: 551 km
right ascension of ascending node: 332.8136°
argument of perigee: 280.7449°
revolutions per day: 15.08408776
mean anomaly at epoch: 79.2112°
orbit number at epoch: 57814

The dashed part of the orbit path shows where the satellite is in the earth's shadow,  

DLR